Content
SEND FEEDBACK

Daily
Averages
Monthly
Summary
United States of America

MERIZO, GUAM


Home > North America > United States > Guam
Elevation: 10 feet     Latitude: 13 14N     Longitude: 144 39E

WEATHER
 
SELECT A DAY
Number of Records: 342,219;   Date Range: 1/1/95 - 8/28/14
 
SHARE

PRINT THIS DATA

[ ← Previous Day ]
WEATHER ALMANAC - SEPTEMBER 14, 2013
[ Next Day → ]
[ °C ]   °F
Weather ElementAverageHighLow
Temperature81.1 °F86 °F (12:58 pm)76.5 °F (5:58 am)
Dewpoint75.8 °F77 °F (7:23 am)72.7 °F (2:58 pm)
Humidity84.4 %100 % (7:23 am)68 % (2:58 pm)
Barometer29.76 in29.87 in (9:08 am)29.65 in (2:58 am)
Wind Speed3.9 mph12.7 mph (2:13 pm)
Weather ElementAverage
Visibility10 mi
Wind DirectionSSE (157.6 °)

Weather ElementTotal
Precipitation0.49 in
Cooling Degree Days16.3 (Base 65)
Growing Degree Days31.3 (Base 50)
Averaged from 42 records on September 14, 2013
WEATHER CONDITIONS BREAKOUT
WIND DIRECTION BREAKOUT
WEATHER BY HOUR - SEPTEMBER 14, 2013
[ °C ]   °F
Local TimeTemperatureDewpointHumidityBarometerVisibilityWind DirectionWind SpeedGust SpeedPrecipitationEventsConditions
1:58 AM78.8 °F76.3 °F92 %29.68 in10.0 miWSW (250°)4.6 mphOvercast
2:58 AM78.1 °F76.3 °F94 %29.65 in10.0 miWSW (250°)4.6 mphOvercast
3:58 AM77.2 °F75.2 °F94 %29.66 in10.0 miSW (220°)3.5 mphClear
4:58 AM76.8 °F75.0 °F94 %29.66 in10.0 miSW (230°)4.6 mphClear
5:58 AM76.5 °F75.0 °F95 %29.68 in10.0 miSW (230°)3.5 mphClear
6:58 AM77.0 °F75.4 °F95 %29.70 in10.0 miCalmScattered Clouds
7:03 AM77.0 °F75.2 °F94 %29.82 in10.0 miWest (260°)1.2 mphMostly Cloudy
7:23 AM77.0 °F77.0 °F100 %29.83 in10.0 miCalmScattered Clouds
7:58 AM81.0 °F77.0 °F88 %29.72 in10.0 miWest (280°)3.5 mphClear
8:58 AM82.4 °F77.0 °F84 %29.73 in10.0 miWSW (240°)5.8 mphMostly Cloudy
9:08 AM82.4 °F77.0 °F84 %29.87 in10.0 miSouth (180°)8.1 mphMostly Cloudy
9:13 AM82.4 °F77.0 °F84 %29.86 in10.0 miSouth (170°)5.8 mphMostly Cloudy
9:23 AM82.4 °F77.0 °F84 %29.86 in10.0 miSouth (180°)6.9 mphScattered Clouds
9:24 AM82.4 °F77.0 °F84 %29.86 in10.0 miSouth (180°)6.9 mphRainLight Rain
9:58 AM79.0 °F75.9 °F90 %29.74 in10.0 miSW (230°)4.6 mph0.38 inRainLight Rain
9:59 AM78.8 °F75.2 °F89 %29.86 in10.0 miSW (230°)4.6 mphMostly Cloudy
10:19 AM80.6 °F77.0 °F89 %29.87 in10.0 miSouth (170°)5.8 mphMostly Cloudy
10:29 AM80.6 °F77.0 °F89 %29.87 in10.0 miSouth (170°)4.6 mphMostly Cloudy
10:34 AM80.6 °F75.2 °F84 %29.87 in10.0 miSouth (180°)4.6 mphMostly Cloudy
10:58 AM81.9 °F76.3 °F83 %29.74 in10.0 miSSW (200°)2.3 mph0.00 inScattered Clouds
11:58 AM83.8 °F75.4 °F76 %29.72 in10.0 miVariable3.5 mphMostly Cloudy
12:58 PM86.0 °F75.4 °F70 %29.70 in10.0 miSouth (190°)4.6 mphMostly Cloudy
1:28 PM86.0 °F77.0 °F74 %29.81 in10.0 miSSE (150°)5.8 mphMostly Cloudy
1:56 PM82.4 °F75.2 °F79 %29.80 in10.0 miVariable1.2 mphRainLight Rain
1:58 PM82.4 °F75.2 °F79 %29.68 in10.0 miVariable2.3 mphRainLight Rain
2:08 PM82.4 °F75.2 °F79 %29.80 in10.0 miNW (320°)9.2 mphRainLight Rain
2:13 PM80.6 °F73.4 °F79 %29.80 in10.0 miWest (280°)12.7 mphRainRain
2:31 PM80.6 °F77.0 °F89 %29.80 in10.0 miNW (310°)6.9 mphMostly Cloudy
2:58 PM84.2 °F72.7 °F68 %29.67 in10.0 miWNW (300°)4.6 mph0.11 inScattered Clouds
3:58 PM84.7 °F75.7 °F74 %29.66 in10.0 miSSE (160°)6.9 mphMostly Cloudy
4:33 PM84.2 °F75.2 °F74 %29.78 in10.0 miSSE (150°)3.5 mphMostly Cloudy
4:53 PM84.2 °F75.2 °F74 %29.78 in10.0 miEast (100°)2.3 mphScattered Clouds
4:58 PM84.7 °F75.7 °F74 %29.66 in10.0 miVariable3.5 mphScattered Clouds
5:28 PM84.2 °F75.2 °F74 %29.78 in10.0 miEast (90°)2.3 mphMostly Cloudy
5:53 PM82.4 °F75.2 °F79 %29.79 in10.0 miENE (60°)1.2 mphScattered Clouds
5:58 PM82.6 °F75.9 °F80 %29.67 in10.0 miCalmPartly Cloudy
6:58 PM81.1 °F75.6 °F83 %29.69 in10.0 miNW (310°)2.3 mphPartly Cloudy
7:58 PM79.3 °F75.7 °F89 %29.71 in10.0 miNorth (350°)3.5 mphPartly Cloudy
8:58 PM79.2 °F75.6 °F89 %29.73 in10.0 miCalmClear
9:58 PM79.5 °F75.9 °F89 %29.74 in10.0 miCalmClear
10:58 PM78.3 °F75.7 °F92 %29.73 in10.0 miCalmClear
11:58 PM78.4 °F75.6 °F91 %29.70 in10.0 miCalmClear
Hourly data recorded from PGUA, located miles away from Merizo, Guam







STORIES FROM OUR PARTNERS